[[{"header":{"parameterUnit":"m.s-1","parameterCategory":1,"la1":30.2991,"la2":30.254,"lo1":-89.0895,"lo2":-89.0444,"dx":0.0017,"dy":0.0017,"nx":28,"ny":28,"refTime":"2022-11-03T15:00:00:Z","depth":0,"parameterNumber":2,"parameterNumberName":"U-component_of_WINDS"},"data":[0,0,0,0,0,0,0,0,0,0,0,0,0,0,0,0,0,0,0,0,0,0,0,0,0,0,0,0,0,0,0,0,0,0,0,0,0,0,0,0,0,0,0,0,0,0,0,0,0,0,0,0,0,0,0,0,0,0,-6.0122,-6.0123,0,-6.0172,-6.0172,-6.0173,-6.0114,-6.0112,-6.011,-6.0108,-6.0159,-6.0162,-6.0165,0,0,0,0,0,0,0,0,0,0,0,0,0,-5.998,-5.9983,-6.0122,-6.0123,-6.0124,-6.0172,-6.0172,-6.0173,-6.0114,-6.0112,-6.0109,-6.0107,-6.0158,-6.0162,-6.0166,0,0,0,0,0,0,0,0,0,0,0,0,0,-6.0037,-5.9984,-6.0122,-6.01,-6.0099,-6.0172,-6.0172,-6.0173,-6.0115,-6.0112,-6.0108,-6.0105,-6.0156,-6.0161,-6.0166,-6.0264,0,0,-6.0182,-6.0184,0,0,0,0,0,0,0,0,-6.0034,-6.0042,-6.0103,-6.0102,-6.01,-6.0133,-6.0141,-6.0204,-6.0116,-6.0109,-6.0108,-6.0104,-6.0153,-6.0158,-6.0175,-6.0266,-6.0268,-6.0182,-6.0185,-6.0188,-6.0189,0,0,0,0,0,0,0,-6.003,-6.004,-6.0142,-6.0104,-6.0102,-6.0089,-6.0093,-6.0153,-6.0149,-6.0109,-6.0105,-6.0112,-6.0152,-6.017,-6.0175,-6.0269,-6.0182,-6.0187,-6.019,-6.0192,-6.0445,-6.0449,0,0,0,0,0,0,-6.0028,-6.0037,-6.014,-6.0143,-6.0058,-6.0094,-6.0099,-6.0126,-6.0148,-6.0148,-6.0114,-6.0109,-6.0163,-6.017,-6.0177,-6.0292,-6.0188,-6.0192,-6.0195,-6.0441,-6.0446,-6.045,0,0,0,0,0,0,-6.0026,-6.0038,-6.0138,-6.0089,-6.0101,-6.01,-6.0131,-6.0129,-6.0147,-6.0152,-6.0151,-6.0133,-6.016,-6.017,-6.0243,-6.0293,-6.0195,-6.0199,-6.0437,-6.0443,-6.0448,-6.0524,0,0,0,0,0,0,-6.0022,-6.0037,-6.0073,-6.009,-6.0104,-6.0202,-6.0134,-6.0132,-6.0156,-6.0149,-6.0169,-6.017,-6.0159,-6.0236,-6.0248,-6.0299,-6.0203,-6.0432,-6.044,-6.0446,-6.0517,-6.0531,-6.0544,0,0,0,0,0,-6.0017,-6.0092,-6.0075,-6.0088,-6.0148,-6.0205,-6.0213,-6.0198,-6.016,-6.0196,-6.0201,-6.0169,-6.0287,-6.0244,-6.0257,-6.031,-6.0429,-6.0438,-6.0446,-6.0511,-6.0529,-6.0544,0,0,0,0,0,0,-6.008,-6.0094,-6.0075,-6.0158,-6.0181,-6.0195,-6.024,-6.0217,-6.0251,-6.0243,-6.0225,-6.023,-6.0308,-6.0317,-6.0268,-6.0407,-6.0352,-6.0363,-6.0397,-6.0414,-6.0427,-6.0422,-6.0208,0,0,0,0,0,-6.0104,-6.0149,-6.0159,-6.0231,-6.0244,-6.0241,-6.0265,-6.0252,-6.0275,-6.0284,-6.0293,-6.0317,-6.036,-6.0388,-6.0427,-6.052,-6.0524,-6.0563,-6.0577,-6.0588,-6.0597,-6.0647,-6.0665,-6.0477,-6.0477,-6.0477,0,0,-6.0153,-6.0166,-6.0195,-6.0244,-6.026,-6.0308,-6.0249,-6.0301,-6.0336,-6.0292,-6.0361,-6.037,-6.0396,-6.0479,-6.0516,-6.0489,-6.0651,-6.0598,-6.0607,-6.061,-6.0658,-6.0675,-6.0691,-6.0482,-6.0481,-6.0481,0,0,-6.0266,-6.0281,-6.0343,-6.0361,-6.0387,-6.0385,-6.0401,-6.042,-6.0423,-6.0493,-6.0462,-6.0505,-6.0578,-6.0598,-6.0618,-6.0744,-6.0717,-6.0758,-6.0827,-6.0877,-6.0891,-6.0904,-6.0949,-6.0965,-6.0768,-6.0768,-6.0768,0,-6.0323,-6.0392,-6.0378,-6.0433,-6.0456,-6.0421,-6.0484,-6.0503,-6.0541,-6.0558,-6.0528,-6.0621,-6.0636,-6.0723,-6.0755,-6.0773,-6.079,-6.0753,-6.089,-6.0903,-6.0915,-6.0957,-6.0974,-6.0773,-6.0772,-6.0772,-6.0771,0,-6.0461,-6.0511,-6.0558,-6.0596,-6.0625,-6.0684,-6.068,-6.0712,-6.0699,-6.0701,-6.0773,-6.0791,-6.0834,-6.0855,-6.0842,-6.0942,-6.0925,-6.0893,-6.0837,-6.0938,-6.0977,-6.0993,-6.0779,-6.0778,-6.0776,-6.0775,0,0,-6.061,-6.0643,-6.066,-6.0677,-6.0706,-6.0744,-6.0804,-6.0846,-6.0873,-6.0903,-6.0951,-6.1017,-6.0989,-6.1012,-6.1002,-6.1046,-6.1145,-6.1009,-6.1009,-6.1032,-6.1257,-6.1278,-6.1297,-6.1129,-6.1132,-6.1135,-6.1254,0,-6.0722,-6.0823,-6.0814,-6.091,-6.0956,-6.0926,-6.0978,-6.1002,-6.1007,-6.1048,-6.1054,-6.11,-6.106,-6.1074,-6.1116,-6.1124,-6.1189,-6.1115,-6.1174,-6.1176,-6.1165,-6.1317,-6.134,-6.1451,-6.1269,-6.1272,-6.1274,0,-6.0865,-6.0899,-6.1,-6.1024,-6.1043,-6.1089,-6.1129,-6.1168,-6.1196,-6.1197,-6.1225,-6.1209,-6.127,-6.1217,-6.1301,-6.1251,-6.1276,-6.1284,-6.1288,-6.129,-6.1228,-6.1321,-6.1486,-6.1502,-6.1298,-6.1296,-6.1294,0,-6.0961,-6.1034,-6.1103,-6.112,-6.115,-6.1183,-6.1198,-6.1222,-6.125,-6.1286,-6.1303,-6.1346,-6.1369,-6.1403,-6.14,-6.1361,-6.1486,-6.1432,-6.1488,-6.1489,-6.1512,-6.151,-6.1681,-6.1534,-6.1533,-6.1533,-6.1533,0,-6.1085,-6.1148,-6.1147,-6.119,-6.126,-6.1252,-6.1322,-6.1332,-6.1356,-6.1401,-6.1379,-6.1422,-6.1416,-6.1461,-6.1459,-6.153,-6.1541,-6.1543,-6.1541,-6.1543,-6.1543,-6.1556,-6.1547,-6.1538,-6.1537,-6.1536,-6.1535,0,-6.1203,-6.1205,-6.1279,-6.1303,-6.1311,-6.1361,-6.1382,-6.1423,-6.1429,-6.1486,-6.15,-6.1508,-6.1559,-6.156,-6.1619,-6.1618,-6.1704,-6.1695,-6.1694,-6.1691,-6.1747,-6.1741,-6.193,-6.1954,-6.1793,-6.1795,-6.1796,0,-6.128,-6.1327,-6.1357,-6.1386,-6.1402,-6.1449,-6.1477,-6.1473,-6.1503,-6.1541,-6.1578,-6.1628,-6.1666,-6.175,-6.1762,-6.1807,-6.1798,-6.1861,-6.1804,-6.1805,-6.1796,-6.1792,-6.1797,-6.1871,-6.1872,-6.1874,-6.1875,0,-6.1416,-6.1416,-6.1457,-6.15,-6.1535,-6.1568,-6.1599,-6.1624,-6.1624,-6.166,-6.1712,-6.1742,-6.1803,-6.1853,-6.1898,-6.1914,-6.1895,-6.1894,-6.1909,-6.191,-6.1906,-6.1907,-6.1721,-6.1888,-6.1887,-6.1886,-6.1885,-6.1885,-6.1515,-6.1556,-6.1584,-6.1631,-6.1655,-6.1685,-6.1725,-6.1737,-6.178,-6.1829,-6.1825,-6.1883,-6.1914,-6.1972,-6.1993,-6.2039,-6.2017,-6.2039,-6.2045,-6.2049,-6.2055,-6.1902,-6.2048,-6.2047,-6.2047,-6.2047,-6.2047,0,-6.1648,-6.1666,-6.171,-6.1755,-6.1793,-6.1774,-6.1808,-6.1841,-6.1892,-6.1923,-6.1962,-6.2024,-6.2073,-6.209,-6.2139,-6.2173,-6.2165,-6.2185,-6.2181,-6.2185,-6.2072,-6.2053,-6.219,-6.219,-6.219,-6.219,-6.219,-6.219,-6.1722,-6.1791,-6.1795,-6.1877,-6.1894,-6.1951,-6.1972,-6.2001,-6.2025,-6.2094,-6.2135,-6.2147,-6.2173,-6.2224,-6.2268,-6.2273,-6.2291,-6.2314,-6.2314,-6.2208,-6.2193,-6.2179,-6.2161,-6.2319,-6.2319,-6.2423,-6.2424,-6.2425]},{"header":{"parameterUnit":"m.s-1","parameterCategory":1,"la1":30.2991,"la2":30.254,"lo1":-89.0895,"lo2":-89.0444,"dx":0.0017,"dy":0.0017,"nx":28,"ny":28,"refTime":"2022-11-03T15:00:00:Z","depth":0,"parameterNumber":3,"parameterNumberName":"V-component_of_WINDS"},"data":[0,0,0,0,0,0,0,0,0,0,0,0,0,0,0,0,0,0,0,0,0,0,0,0,0,0,0,0,0,0,0,0,0,0,0,0,0,0,0,0,0,0,0,0,0,0,0,0,0,0,0,0,0,0,0,0,0,0,2.1838,2.1839,0,2.1913,2.1913,2.1914,2.1996,2.1998,2.1999,2.2,2.2072,2.2073,2.2074,0,0,0,0,0,0,0,0,0,0,0,0,0,2.1764,2.1765,2.1838,2.1839,2.184,2.1912,2.1913,2.1914,2.1996,2.1998,2.1999,2.2,2.2072,2.2073,2.2074,0,0,0,0,0,0,0,0,0,0,0,0,0,2.1813,2.1766,2.1838,2.1889,2.1895,2.1912,2.1914,2.1915,2.1996,2.1998,2.1999,2.2001,2.2072,2.2073,2.2074,2.2045,0,0,2.2078,2.2078,0,0,0,0,0,0,0,0,2.181,2.1816,2.1881,2.1886,2.1892,2.1947,2.1914,2.1958,2.1995,2.1957,2.2,2.2002,2.2029,2.2034,2.2044,2.2049,2.2052,2.2078,2.2078,2.2079,2.2079,0,0,0,0,0,0,0,2.1807,2.1813,2.1867,2.1882,2.1888,2.1908,2.1917,2.1923,2.1982,2.1961,2.1967,2.1975,2.2032,2.2042,2.2046,2.2053,2.2078,2.2079,2.208,2.208,2.2041,2.204,0,0,0,0,0,0,2.1796,2.181,2.1865,2.187,2.1855,2.1908,2.1918,2.1927,2.1982,2.1992,2.1973,2.1978,2.2039,2.2044,2.2049,2.2021,2.2079,2.208,2.2081,2.2043,2.2041,2.2039,0,0,0,0,0,0,2.1794,2.18,2.1862,2.1841,2.1851,2.1908,2.1917,2.1928,2.1938,2.1992,2.2002,2.1973,2.2041,2.2047,2.2047,2.2025,2.2081,2.2082,2.2045,2.2042,2.204,2.1964,0,0,0,0,0,0,2.1792,2.1799,2.1789,2.1841,2.1852,2.1859,2.1916,2.1928,2.1941,2.1948,2.1994,2.2003,2.2043,2.2044,2.2048,2.2027,2.2083,2.2047,2.2044,2.2041,2.1969,2.1959,2.1951,0,0,0,0,0,2.1789,2.1763,2.1788,2.1794,2.184,2.1857,2.1864,2.1911,2.1938,2.1929,2.1964,2.2002,2.2026,2.2044,2.2048,2.2028,2.2049,2.2045,2.2041,2.1973,2.1961,2.1951,0,0,0,0,0,0,2.1705,2.1771,2.1799,2.179,2.1818,2.1871,2.1861,2.1896,2.1916,2.1922,2.1978,2.1988,2.1981,2.2004,2.2022,2.2004,2.2043,2.204,2.199,2.1979,2.197,2.1965,2.2084,0,0,0,0,0,2.1686,2.1695,2.1752,2.1738,2.1751,2.1803,2.1812,2.1846,2.1877,2.1889,2.1923,2.1951,2.1965,2.1973,2.1989,2.1972,2.1984,2.1961,2.1952,2.1944,2.1941,2.1936,2.1927,2.2026,2.2026,2.2026,0,0,2.1646,2.1683,2.1685,2.1722,2.1748,2.1756,2.1812,2.1818,2.1825,2.1889,2.1892,2.1918,2.1953,2.1945,2.1943,2.1964,2.1916,2.1939,2.1933,2.1934,2.1931,2.1922,2.1913,2.2023,2.2024,2.2024,0,0,2.1578,2.1606,2.1599,2.1624,2.1663,2.1699,2.1697,2.1746,2.1767,2.1771,2.182,2.1828,2.1851,2.1874,2.1889,2.1832,2.1869,2.1835,2.1789,2.1784,2.1776,2.1769,2.1751,2.1743,2.1832,2.1832,2.1832,0,2.1522,2.1538,2.159,2.1594,2.1609,2.167,2.1664,2.1685,2.1727,2.1736,2.1759,2.1791,2.1818,2.1818,2.1804,2.1813,2.1814,2.1831,2.1773,2.1767,2.1761,2.1744,2.1737,2.1828,2.1828,2.1828,2.1829,0,2.1469,2.1479,2.1468,2.151,2.1524,2.1522,2.1574,2.1582,2.1615,2.1648,2.1652,2.1687,2.1713,2.1715,2.1746,2.1719,2.1731,2.1763,2.1803,2.1747,2.1732,2.1726,2.1822,2.1823,2.1824,2.1825,0,0,2.135,2.1422,2.1417,2.1438,2.1486,2.1495,2.1496,2.1523,2.1529,2.1556,2.1559,2.1578,2.1608,2.1625,2.166,2.1655,2.161,2.1687,2.1689,2.1673,2.1585,2.1562,2.1553,2.1634,2.1633,2.1632,2.1582,0,2.1291,2.1299,2.1347,2.1341,2.1352,2.1411,2.1412,2.1442,2.1473,2.1486,2.152,2.1534,2.1572,2.1583,2.158,2.1616,2.1593,2.162,2.1638,2.1638,2.1629,2.1545,2.1521,2.1472,2.1577,2.1576,2.1575,0,2.1224,2.1249,2.1245,2.1296,2.1302,2.1303,2.1332,2.1344,2.1379,2.1402,2.1422,2.1462,2.1467,2.1505,2.1513,2.153,2.1541,2.1559,2.1559,2.1563,2.1604,2.1549,2.1457,2.145,2.1566,2.1567,2.1567,0,2.114,2.1172,2.1175,2.119,2.1249,2.1249,2.1273,2.131,2.1324,2.1349,2.1359,2.1383,2.1397,2.1415,2.146,2.1483,2.1464,2.1505,2.1484,2.1483,2.1478,2.1478,2.1388,2.1482,2.1482,2.1482,2.1482,0,2.1071,2.1066,2.1139,2.114,2.1137,2.1192,2.1187,2.1217,2.125,2.1258,2.1309,2.1316,2.1375,2.1388,2.1424,2.1427,2.1432,2.1451,2.146,2.1447,2.1445,2.1455,2.146,2.148,2.1481,2.1481,2.1481,0,2.0976,2.1025,2.1032,2.1088,2.1102,2.1097,2.1145,2.1148,2.1183,2.1193,2.1198,2.1253,2.1271,2.1319,2.1348,2.1372,2.1366,2.1383,2.1354,2.1361,2.1338,2.134,2.1253,2.1245,2.1342,2.1341,2.134,0,2.093,2.0928,2.0985,2.0995,2.1018,2.1033,2.1048,2.1102,2.1115,2.1156,2.1155,2.1178,2.12,2.1226,2.1268,2.1292,2.1311,2.1278,2.1314,2.1302,2.1312,2.1312,2.1313,2.1271,2.1269,2.1268,2.1267,0,2.0843,2.0867,2.0888,2.0917,2.0933,2.0958,2.0986,2.0991,2.1052,2.1064,2.1085,2.1102,2.1134,2.1156,2.1187,2.1211,2.125,2.1256,2.1253,2.1239,2.1224,2.1234,2.1335,2.1258,2.1259,2.1259,2.126,2.126,2.0773,2.0775,2.0816,2.0837,2.0864,2.0889,2.0896,2.0933,2.0951,2.0983,2.1013,2.1031,2.1068,2.1113,2.1135,2.115,2.117,2.1164,2.1163,2.1161,2.1156,2.122,2.1155,2.1156,2.1156,2.1156,2.1156,0,2.069,2.072,2.0739,2.0777,2.0794,2.083,2.0863,2.0874,2.089,2.0922,2.0942,2.0967,2.0989,2.1033,2.106,2.1063,2.1081,2.1068,2.1069,2.1074,2.1136,2.1137,2.1053,2.1053,2.1053,2.1053,2.1053,2.1053,2.0649,2.0656,2.0685,2.0705,2.0735,2.0754,2.077,2.0794,2.082,2.0845,2.0865,2.0894,2.0931,2.0961,2.0983,2.0995,2.1003,2.0985,2.1003,2.106,2.107,2.1079,2.1081,2.0986,2.0986,2.094,2.094,2.094]}]]